Time,TemperatureF,DewpointF,PressureIn,WindDirection,WindDirectionDegrees,WindSpeedMPH,WindSpeedGustMPH,Humidity,HourlyPrecipIn,Conditions,Clouds,dailyrainin,SolarRadiationWatts/m^2,SoftwareType,DateUTC
2013-08-21 00:12:00,77.0,50.0,-100.00,North,353,5.0,8.0,37,-99.99,,,-99.99,0.000000,,2013-08-21 06:12:00,
2013-08-21 00:42:00,73.0,53.0,-100.00,WNW,285,5.0,7.0,49,-99.99,,,-99.99,0.000000,,2013-08-21 06:42:00,
2013-08-21 00:52:00,73.0,54.0,-100.00,WNW,303,7.0,9.0,51,-99.99,,,-99.99,0.000000,,2013-08-21 06:52:00,
2013-08-21 01:01:00,73.0,54.0,-100.00,WNW,303,7.0,9.0,51,-99.99,,,-99.99,0.000000,,2013-08-21 07:01:00,
2013-08-21 02:22:00,72.0,53.0,-100.00,NW,315,8.0,11.0,52,-99.99,,,-99.99,0.000000,,2013-08-21 08:22:00,
2013-08-21 02:32:00,72.0,53.0,-100.00,NW,315,8.0,11.0,52,-99.99,,,-99.99,0.000000,,2013-08-21 08:32:00,
2013-08-21 02:53:00,71.0,53.0,-100.00,NW,319,7.0,8.0,52,-99.99,,,-99.99,0.000000,,2013-08-21 08:53:00,
2013-08-21 03:11:00,72.0,52.0,-100.00,WNW,297,8.0,11.0,50,-99.99,,,-99.99,0.000000,,2013-08-21 09:11:00,
2013-08-21 04:13:00,70.0,52.0,-100.00,NW,322,6.0,10.0,54,-99.99,,,-99.99,0.000000,,2013-08-21 10:13:00,
2013-08-21 04:43:00,70.0,52.0,-100.00,NW,315,6.0,8.0,52,-99.99,,,-99.99,0.000000,,2013-08-21 10:43:00,
2013-08-21 04:52:00,70.0,52.0,-100.00,NW,316,4.0,7.0,51,-99.99,,,-99.99,0.000000,,2013-08-21 10:52:00,
2013-08-21 05:03:00,70.0,52.0,-100.00,NW,316,4.0,7.0,51,-99.99,,,-99.99,0.000000,,2013-08-21 11:03:00,
2013-08-21 05:42:00,69.0,53.0,-100.00,NW,316,7.0,8.0,56,-99.99,,,-99.99,0.000000,,2013-08-21 11:42:00,
2013-08-21 05:53:00,68.0,53.0,-100.00,NW,313,5.0,7.0,59,-99.99,,,-99.99,0.000000,,2013-08-21 11:53:00,
2013-08-21 06:01:00,68.0,53.0,-100.00,NW,313,5.0,7.0,59,-99.99,,,-99.99,0.000000,,2013-08-21 12:01:00,
2013-08-21 06:42:00,67.0,53.0,-100.00,NW,322,7.0,9.0,61,-99.99,,,-99.99,0.000000,,2013-08-21 12:42:00,
2013-08-21 07:30:00,69.0,54.0,-100.00,NNW,345,3.0,6.0,58,-99.99,,,-99.99,61.369999,,2013-08-21 13:30:00,
2013-08-21 07:42:00,67.0,54.0,-100.00,NW,318,6.0,8.0,61,-99.99,,,-99.99,24.410000,,2013-08-21 13:42:00,
2013-08-21 07:52:00,69.0,54.0,-100.00,NNW,345,3.0,6.0,58,-99.99,,,-99.99,61.369999,,2013-08-21 13:52:00,
2013-08-21 08:02:00,69.0,54.0,-100.00,NNW,345,3.0,6.0,58,-99.99,,,-99.99,61.369999,,2013-08-21 14:02:00,
2013-08-21 08:11:00,69.0,54.0,-100.00,NNW,345,3.0,6.0,58,-99.99,,,-99.99,61.369999,,2013-08-21 14:11:00,
2013-08-21 08:21:00,69.0,54.0,-100.00,NNW,345,3.0,6.0,58,-99.99,,,-99.99,61.369999,,2013-08-21 14:21:00,
2013-08-21 09:43:00,76.0,51.0,-100.00,SE,124,3.0,7.0,41,-99.99,,,-99.99,380.739990,,2013-08-21 15:43:00,
2013-08-21 10:43:00,78.0,52.0,-100.00,ESE,103,4.0,8.0,39,-99.99,,,-99.99,563.450012,,2013-08-21 16:43:00,
2013-08-21 11:13:00,78.0,53.0,-100.00,SE,132,4.0,8.0,41,-99.99,,,-99.99,641.549988,,2013-08-21 17:13:00,
2013-08-21 11:23:00,79.0,53.0,-100.00,SSE,151,4.0,8.0,40,-99.99,,,-99.99,677.109985,,2013-08-21 17:23:00,
2013-08-21 11:34:00,79.0,53.0,-100.00,SSE,151,4.0,8.0,40,-99.99,,,-99.99,677.109985,,2013-08-21 17:34:00,
2013-08-21 12:42:00,81.0,49.0,-100.00,SSE,160,5.0,12.0,32,-99.99,,,-99.99,791.469971,,2013-08-21 18:42:00,
2013-08-21 13:42:00,84.0,47.0,-100.00,SSE,150,6.0,14.0,27,-99.99,,,-99.99,844.469971,,2013-08-21 19:42:00,
2013-08-21 14:42:00,86.0,44.0,-100.00,SSE,159,9.0,17.0,23,-99.99,,,-99.99,836.099976,,2013-08-21 20:42:00,
2013-08-21 15:55:00,88.0,36.0,-100.00,South,169,6.0,15.0,16,-99.99,,,-99.99,710.580017,,2013-08-21 21:55:00,
2013-08-21 16:04:00,88.0,36.0,-100.00,South,169,6.0,15.0,16,-99.99,,,-99.99,710.580017,,2013-08-21 22:04:00,
2013-08-21 16:43:00,88.0,36.0,-100.00,SSE,161,5.0,10.0,16,-99.99,,,-99.99,575.299988,,2013-08-21 22:43:00,
2013-08-21 17:22:00,88.0,38.0,-100.00,SE,127,6.0,13.0,17,-99.99,,,-99.99,423.980011,,2013-08-21 23:22:00,
2013-08-21 17:43:00,88.0,37.0,-100.00,SE,139,8.0,14.0,17,-99.99,,,-99.99,400.269989,,2013-08-21 23:43:00,
2013-08-21 17:53:00,88.0,36.0,-100.00,SE,144,7.0,13.0,15,-99.99,,,-99.99,288.000000,,2013-08-21 23:53:00,
2013-08-21 18:02:00,88.0,36.0,-100.00,SE,144,7.0,13.0,15,-99.99,,,-99.99,288.000000,,2013-08-22 00:02:00,
2013-08-21 18:22:00,87.0,36.0,-100.00,SE,139,7.0,11.0,15,-99.99,,,-99.99,293.579987,,2013-08-22 00:22:00,
2013-08-21 18:32:00,87.0,36.0,-100.00,SE,139,7.0,11.0,15,-99.99,,,-99.99,293.579987,,2013-08-22 00:32:00,
2013-08-21 19:11:00,86.0,38.0,-100.00,SSE,150,5.0,9.0,17,-99.99,,,-99.99,153.410004,,2013-08-22 01:11:00,
2013-08-21 19:42:00,85.0,40.0,-100.00,SSE,156,4.0,8.0,20,-99.99,,,-99.99,64.150002,,2013-08-22 01:42:00,
2013-08-21 21:45:00,79.0,42.0,-100.00,ESE,107,2.0,6.0,26,-99.99,,,-99.99,0.000000,,2013-08-22 03:45:00,
2013-08-21 21:54:00,78.0,44.0,-100.00,NW,316,2.0,5.0,29,-99.99,,,-99.99,0.000000,,2013-08-22 03:54:00,
2013-08-21 22:04:00,78.0,44.0,-100.00,NW,316,2.0,5.0,29,-99.99,,,-99.99,0.000000,,2013-08-22 04:04:00,
2013-08-21 22:14:00,78.0,44.0,-100.00,NW,316,2.0,5.0,29,-99.99,,,-99.99,0.000000,,2013-08-22 04:14:00,
2013-08-21 22:23:00,78.0,38.0,-100.00,SE,141,4.0,8.0,23,-99.99,,,-99.99,0.000000,,2013-08-22 04:23:00,
2013-08-21 22:34:00,78.0,38.0,-100.00,SE,141,4.0,8.0,23,-99.99,,,-99.99,0.000000,,2013-08-22 04:34:00,
2013-08-21 22:54:00,78.0,33.0,-100.00,ESE,120,4.0,7.0,20,-99.99,,,-99.99,0.000000,,2013-08-22 04:54:00,
2013-08-21 23:13:00,77.0,35.0,-100.00,NE,45,3.0,8.0,21,-99.99,,,-99.99,0.000000,,2013-08-22 05:13:00,
2013-08-21 23:43:00,73.0,36.0,-100.00,NNW,327,4.0,7.0,25,-99.99,,,-99.99,0.000000,,2013-08-22 05:43:00,
2013-08-21 23:53:00,72.0,36.0,-100.00,NW,324,4.0,6.0,26,-99.99,,,-99.99,0.000000,,2013-08-22 05:53:00,